SKW1941 KPHX-KLAX

Flight info

Callsign SKW1941
Flight time 1h 3m
Altitude 32000
Route KEENS3 WLVRN ESTWD HLYWD1
Aircraft E75L/M-VGDW/C

Departure

Time 2026-05-04 05:24
Airport Phoenix Sky Harbor International Airport (KPHX)

Arrival

Time 2026-05-04 06:27
Airport Los Angeles International Airport (KLAX)
Time Latitude Longitude Altitude Speed Heading
2026-05-04 05:06 33.43796 -112.00127 1133 ft 0 kts 270°
2026-05-04 05:15 33.43794 -112.00110 1132 ft 2 kts 288°
2026-05-04 05:15 33.43787 -112.00095 1133 ft 2 kts 310°
2026-05-04 05:16 33.43776 -112.00083 1133 ft 2 kts 333°
2026-05-04 05:16 33.43762 -112.00078 1133 ft 2 kts 355°
2026-05-04 05:16 33.43757 -112.00078 1133 ft 0 kts 359°
2026-05-04 05:18 33.43758 -112.00078 1133 ft 1 kts 359°
2026-05-04 05:18 33.43783 -112.00079 1132 ft 6 kts 358°
2026-05-04 05:18 33.43844 -112.00079 1133 ft 11 kts
2026-05-04 05:18 33.43901 -112.00138 1134 ft 14 kts 272°
2026-05-04 05:19 33.43899 -112.00280 1133 ft 17 kts 270°
2026-05-04 05:19 33.43840 -112.00381 1133 ft 16 kts 174°
2026-05-04 05:19 33.43747 -112.00378 1133 ft 13 kts 179°
2026-05-04 05:19 33.43648 -112.00380 1132 ft 15 kts 181°
2026-05-04 05:20 33.43529 -112.00380 1130 ft 18 kts 180°
2026-05-04 05:20 33.43395 -112.00382 1130 ft 19 kts 180°
2026-05-04 05:20 33.43252 -112.00382 1128 ft 20 kts 171°
2026-05-04 05:20 33.43217 -112.00235 1127 ft 20 kts 90°
2026-05-04 05:21 33.43214 -112.00066 1127 ft 20 kts 91°
2026-05-04 05:21 33.43216 -111.99886 1127 ft 21 kts 88°
2026-05-04 05:21 33.43215 -111.99702 1126 ft 22 kts 90°
2026-05-04 05:21 33.43214 -111.99510 1126 ft 23 kts 90°
2026-05-04 05:22 33.43201 -111.99361 1129 ft 12 kts 141°
2026-05-04 05:22 33.43126 -111.99348 1129 ft 9 kts 198°
2026-05-04 05:22 33.43104 -111.99414 1128 ft 11 kts 269°
2026-05-04 05:22 33.43103 -111.99700 1126 ft 66 kts 270°
2026-05-04 05:23 33.43102 -112.00429 1128 ft 107 kts 269°
2026-05-04 05:23 33.43102 -112.01474 1129 ft 139 kts 268°
2026-05-04 05:23 33.43115 -112.02639 1328 ft 144 kts 267°
2026-05-04 05:23 33.43025 -112.03861 1609 ft 147 kts 253°
2026-05-04 05:24 33.42652 -112.04997 1941 ft 147 kts 242°
2026-05-04 05:24 33.42207 -112.06165 2266 ft 164 kts 245°
2026-05-04 05:24 33.41778 -112.07413 2857 ft 170 kts 245°
2026-05-04 05:24 33.41358 -112.08898 3055 ft 204 kts 250°
2026-05-04 05:25 33.40958 -112.10563 3705 ft 212 kts 251°
2026-05-04 05:25 33.40577 -112.12277 4471 ft 215 kts 251°
2026-05-04 05:25 33.40174 -112.14164 4687 ft 245 kts 253°
2026-05-04 05:25 33.39751 -112.16217 5196 ft 259 kts 253°
2026-05-04 05:26 33.39326 -112.18317 5987 ft 261 kts 253°
2026-05-04 05:26 33.39189 -112.20506 6668 ft 271 kts 275°
2026-05-04 05:26 33.39511 -112.22755 7384 ft 275 kts 276°
2026-05-04 05:26 33.39843 -112.25010 8066 ft 279 kts 276°
2026-05-04 05:27 33.40190 -112.27351 8781 ft 282 kts 276°
2026-05-04 05:28 33.42708 -112.44359 12899 ft 312 kts 276°
2026-05-04 05:29 33.43087 -112.46933 13421 ft 316 kts 276°
2026-05-04 05:29 33.43466 -112.49506 14123 ft 314 kts 276°
2026-05-04 05:29 33.43842 -112.52071 14679 ft 316 kts 276°
2026-05-04 05:29 33.44218 -112.54629 15343 ft 315 kts 276°
2026-05-04 05:31 33.45186 -112.72884 19176 ft 318 kts 268°
2026-05-04 05:31 33.45221 -112.75534 19634 ft 321 kts 269°
2026-05-04 05:32 33.45253 -112.78127 20300 ft 317 kts 268°
2026-05-04 05:32 33.45575 -112.80738 20810 ft 323 kts 285°
2026-05-04 05:32 33.46426 -112.83257 21095 ft 332 kts 288°
2026-05-04 05:33 33.48201 -112.88322 22124 ft 332 kts 287°
2026-05-04 05:33 33.49090 -112.90861 22631 ft 331 kts 286°
2026-05-04 05:33 33.49997 -112.93452 22848 ft 339 kts 287°
2026-05-04 05:33 33.50895 -112.96018 23569 ft 332 kts 287°
2026-05-04 05:34 33.51779 -112.98547 23996 ft 333 kts 286°
2026-05-04 05:34 33.52657 -113.01062 24528 ft 330 kts 287°
2026-05-04 05:34 33.53565 -113.03661 24708 ft 337 kts 287°
2026-05-04 05:34 33.54448 -113.06190 25227 ft 334 kts 285°
2026-05-04 05:35 33.55357 -113.08804 25561 ft 336 kts 286°
2026-05-04 05:35 33.56253 -113.11378 25946 ft 336 kts 286°
2026-05-04 05:35 33.57142 -113.13931 26482 ft 332 kts 286°
2026-05-04 05:35 33.58041 -113.16522 26663 ft 337 kts 286°
2026-05-04 05:36 33.58935 -113.19093 27091 ft 336 kts 287°
2026-05-04 05:36 33.59836 -113.21692 27412 ft 337 kts 287°
2026-05-04 05:36 33.60735 -113.24278 27683 ft 339 kts 286°
2026-05-04 05:36 33.61633 -113.26878 28039 ft 339 kts 287°
2026-05-04 05:37 33.62532 -113.29467 28502 ft 335 kts 285°
2026-05-04 05:37 33.63427 -113.32060 28656 ft 340 kts 285°
2026-05-04 05:37 33.64334 -113.34685 28972 ft 340 kts 286°
2026-05-04 05:38 33.66143 -113.39922 29636 ft 339 kts 286°
2026-05-04 05:38 33.67038 -113.42521 29838 ft 341 kts 285°
2026-05-04 05:38 33.67953 -113.45175 30094 ft 342 kts 285°
2026-05-04 05:38 33.68850 -113.47781 30348 ft 343 kts 285°
2026-05-04 05:39 33.69758 -113.50420 30628 ft 342 kts 285°
2026-05-04 05:39 33.71589 -113.55751 31006 ft 347 kts 284°
2026-05-04 05:39 33.72507 -113.58429 31117 ft 350 kts 285°
2026-05-04 05:40 33.74330 -113.63741 31865 ft 337 kts 284°
2026-05-04 05:40 33.76149 -113.69069 31897 ft 348 kts 283°
2026-05-04 05:41 33.78011 -113.74525 31887 ft 361 kts 284°
2026-05-04 05:41 33.79942 -113.80187 31884 ft 373 kts 284°
2026-05-04 05:42 33.81920 -113.85986 31872 ft 373 kts 284°
2026-05-04 05:42 33.83895 -113.91799 31869 ft 375 kts 284°
2026-05-04 05:43 33.85870 -113.97617 31866 ft 374 kts 285°
2026-05-04 05:45 33.92189 -114.21168 31826 ft 368 kts 275°
2026-05-04 05:47 33.96265 -114.45297 31792 ft 365 kts 276°
2026-05-04 05:47 33.97277 -114.51335 31791 ft 368 kts 275°
2026-05-04 05:48 33.98280 -114.57337 31788 ft 368 kts 276°
2026-05-04 05:48 33.99281 -114.63354 31784 ft 366 kts 275°
2026-05-04 05:49 34.00246 -114.69165 31810 ft 364 kts 274°
2026-05-04 05:49 34.01241 -114.75172 31814 ft 368 kts 274°
2026-05-04 05:51 34.05226 -114.99442 31810 ft 369 kts 275°
2026-05-04 05:52 34.06217 -115.05522 31810 ft 370 kts 274°
2026-05-04 05:52 34.07204 -115.11585 31817 ft 370 kts 275°
2026-05-04 05:54 34.11139 -115.35940 31815 ft 370 kts 274°
2026-05-04 05:55 34.12114 -115.42033 31832 ft 368 kts 274°
2026-05-04 05:55 34.13081 -115.48087 31835 ft 370 kts 274°
2026-05-04 05:56 34.14045 -115.54150 31845 ft 371 kts 274°
2026-05-04 05:56 34.15011 -115.60239 31855 ft 369 kts 275°
2026-05-04 05:57 34.15972 -115.66319 31869 ft 368 kts 274°
2026-05-04 05:57 34.16067 -115.72366 31901 ft 357 kts 259°
2026-05-04 05:58 34.15481 -115.78346 31890 ft 357 kts 259°
2026-05-04 05:58 34.14905 -115.84300 31898 ft 357 kts 260°
2026-05-04 05:59 34.14327 -115.90253 31901 ft 354 kts 259°
2026-05-04 05:59 34.13750 -115.96170 31891 ft 352 kts 259°
2026-05-04 06:00 34.13176 -116.02039 31657 ft 352 kts 259°
2026-05-04 06:00 34.12889 -116.04961 31285 ft 350 kts 259°
2026-05-04 06:00 34.12604 -116.07867 30907 ft 346 kts 260°
2026-05-04 06:01 34.12324 -116.10717 30546 ft 343 kts 260°
2026-05-04 06:01 34.12043 -116.13576 30166 ft 342 kts 260°
2026-05-04 06:03 34.10069 -116.33205 27626 ft 335 kts 259°
2026-05-04 06:03 34.09773 -116.35988 27253 ft 334 kts 259°
2026-05-04 06:05 34.07699 -116.55290 24699 ft 328 kts 259°
2026-05-04 06:05 34.07140 -116.60750 24060 ft 328 kts 260°
2026-05-04 06:05 34.06881 -116.63544 23697 ft 327 kts 259°
2026-05-04 06:06 34.06628 -116.66260 23353 ft 327 kts 259°
2026-05-04 06:06 34.06370 -116.69040 23000 ft 328 kts 260°
2026-05-04 06:06 34.06117 -116.71759 22636 ft 325 kts 260°
2026-05-04 06:06 34.05863 -116.74486 22279 ft 325 kts 260°
2026-05-04 06:07 34.05611 -116.77193 21927 ft 325 kts 259°
2026-05-04 06:07 34.05356 -116.79900 21571 ft 325 kts 259°
2026-05-04 06:07 34.05103 -116.82595 21203 ft 321 kts 260°
2026-05-04 06:07 34.04849 -116.85291 20850 ft 322 kts 261°
2026-05-04 06:08 34.04594 -116.87992 20485 ft 322 kts 261°
2026-05-04 06:08 34.04278 -116.90659 20144 ft 323 kts 258°
2026-05-04 06:08 34.03934 -116.93320 19774 ft 320 kts 258°
2026-05-04 06:08 34.03594 -116.95943 19436 ft 320 kts 258°
2026-05-04 06:09 34.03252 -116.98588 19079 ft 320 kts 258°
2026-05-04 06:09 34.02907 -117.01234 18705 ft 320 kts 258°
2026-05-04 06:11 34.00709 -117.19602 16342 ft 315 kts 259°
2026-05-04 06:11 34.00397 -117.22216 15996 ft 314 kts 260°
2026-05-04 06:13 33.98258 -117.40243 13747 ft 301 kts 259°
2026-05-04 06:14 33.98491 -117.55400 11729 ft 306 kts 280°
2026-05-04 06:14 33.98962 -117.57899 11391 ft 302 kts 280°
2026-05-04 06:15 33.99426 -117.60357 11054 ft 298 kts 280°
2026-05-04 06:15 33.99880 -117.62764 10728 ft 294 kts 280°
2026-05-04 06:15 34.00333 -117.65163 10400 ft 288 kts 279°
2026-05-04 06:15 34.00770 -117.67509 10088 ft 280 kts 276°
2026-05-04 06:16 34.00754 -117.69807 9805 ft 270 kts 261°
2026-05-04 06:16 34.00540 -117.72040 9504 ft 267 kts 261°
2026-05-04 06:16 34.00322 -117.74289 9216 ft 271 kts 262°
2026-05-04 06:16 34.00103 -117.76559 8911 ft 271 kts 261°
2026-05-04 06:17 33.99883 -117.78818 8616 ft 271 kts 262°
2026-05-04 06:17 33.99661 -117.81099 8309 ft 273 kts 262°
2026-05-04 06:17 33.99444 -117.83336 8035 ft 269 kts 262°
2026-05-04 06:17 33.99218 -117.85646 7726 ft 271 kts 261°
2026-05-04 06:18 33.98998 -117.87899 7430 ft 271 kts 262°
2026-05-04 06:18 33.98781 -117.90120 7161 ft 261 kts 262°
2026-05-04 06:18 33.98570 -117.92268 6903 ft 251 kts 262°
2026-05-04 06:20 33.97225 -118.05856 5095 ft 226 kts 262°
2026-05-04 06:20 33.97037 -118.07741 4848 ft 225 kts 262°
2026-05-04 06:21 33.96353 -118.14738 4072 ft 182 kts 262°
2026-05-04 06:21 33.96203 -118.16237 3790 ft 175 kts 261°
2026-05-04 06:22 33.96056 -118.17681 3534 ft 169 kts 261°
2026-05-04 06:22 33.95918 -118.19054 3294 ft 162 kts 260°
2026-05-04 06:25 33.94435 -118.33589 906 ft 130 kts 261°
2026-05-04 06:25 33.94321 -118.34673 729 ft 129 kts 263°
2026-05-04 06:26 33.94213 -118.35753 543 ft 130 kts 261°
2026-05-04 06:26 33.94100 -118.36842 370 ft 130 kts 263°
2026-05-04 06:26 33.93991 -118.37920 209 ft 128 kts 263°
2026-05-04 06:26 33.93891 -118.38938 102 ft 120 kts 263°
2026-05-04 06:27 33.93792 -118.39913 113 ft 23 kts 262°
2026-05-04 06:28 33.93786 -118.39973 114 ft 9 kts 264°